Location: *
(46.1333°S, 161.2167°W)
Time: 04:13:45
(UTC+00:00)

Cosmos 1570 Rocket - Pass Details

Date: 15 July 2020
Orbit: 763 x 788 km, 74.1° (Epoch: 10 August)

Event Time Altitude Azimuth Distance (km) Brightness Sun altitude
Rises 15:51:45 0° 350° (N) 3,273 7.2 -25.3°
Reaches altitude 10° 15:54:08 10° 353° (N) 2,354 6.5 -24.9°
Maximum altitude 15:59:26 63° 73° (ENE) 890 4.5 -24.0°
Drops below altitude 10° 16:04:48 10° 153° (SSE) 2,386 6.8 -23.1°
Sets 16:07:14 0° 155° (SSE) 3,321 7.5 -22.7°
